Date,TemperatureHighF,TemperatureAvgF,TemperatureLowF,DewpointHighF,DewpointAvgF,DewpointLowF,HumidityHigh,HumidityAvg,HumidityLow,PressureMaxIn,PressureMinIn,WindSpeedMaxMPH,WindSpeedAvgMPH,GustSpeedMaxMPH,PrecipitationSumIn
2014-1-1,35.8,28.4,21.6,24.8,19.1,12.1,76,68,54,30.40,30.16,5,1,11,0.00
2014-1-2,30.6,26.3,18.9,26.1,21.9,16.5,93,84,71,30.16,29.68,6,4,14,0.00
2014-1-3,20.0,12.6,8.3,17.8,6.3,-0.5,91,76,60,30.49,29.68,14,6,32,0.00
2014-1-4,27.2,16.8,6.1,14.5,7.8,-0.7,83,68,53,30.52,30.27,4,2,10,0.06
2014-1-5,45.8,27.0,17.8,45.5,24.4,14.1,99,90,71,30.28,29.64,5,1,17,0.32
2014-1-6,49.2,33.4,5.4,49.2,24.6,-13.6,100,72,39,30.00,29.43,15,8,33,0.32
2014-1-7,9.3,4.2,-1.6,-6.0,-13.0,-19.1,54,44,38,30.45,30.00,16,7,31,0.00
2014-1-8,22.7,14.8,5.2,9.7,-0.4,-7.2,66,51,38,30.60,30.44,6,2,13,0.00
2014-1-9,31.5,25.8,20.2,16.8,13.6,8.6,70,60,51,30.67,30.50,4,1,7,0.00
2014-1-10,35.0,31.2,27.3,34.2,27.7,16.7,98,87,62,30.55,30.14,3,0,7,0.30
2014-1-11,55.9,45.1,34.3,55.9,44.8,33.8,100,99,96,30.14,29.32,14,3,32,0.84
2014-1-12,45.7,39.5,33.7,44.6,30.3,27.1,96,69,60,30.11,29.49,12,6,27,0.00
2014-1-13,51.6,41.4,30.4,36.2,32.0,26.3,86,70,53,30.11,29.84,5,2,13,0.00
2014-1-14,46.1,43.6,37.9,44.6,40.8,35.8,98,90,68,29.89,29.69,5,1,11,0.24
2014-1-15,39.3,35.9,28.7,38.8,34.2,24.8,99,94,69,29.97,29.88,5,2,14,0.00
2014-1-16,36.2,31.5,27.3,24.8,17.3,13.2,72,56,43,30.01,29.87,8,3,17,0.01
2014-1-17,40.9,33.7,27.2,27.8,24.2,16.2,85,68,55,29.96,29.82,3,1,7,0.00
2014-1-18,34.3,25.6,17.3,29.1,16.1,7.2,93,68,47,29.97,29.79,13,6,26,0.00
2014-1-19,37.8,27.5,17.5,23.7,15.9,8.1,70,62,54,29.94,29.70,12,3,26,0.00
2014-1-20,42.8,37.3,31.0,28.1,23.9,20.0,67,59,47,29.88,29.64,9,4,18,0.00
2014-1-21,34.1,20.0,7.4,22.4,14.9,2.8,90,81,61,29.96,29.82,6,4,19,0.00
2014-1-22,12.6,5.2,-0.2,5.6,-1.1,-6.0,81,75,71,30.07,29.91,22,6,22,0.00
2014-1-23,19.5,11.9,6.0,10.5,3.9,-0.7,80,70,62,30.39,30.07,9,4,19,0.00
2014-1-24,17.3,10.8,4.8,0.6,-2.0,-4.2,69,56,44,30.49,30.04,7,4,20,0.00
2014-1-25,25.6,19.9,14.6,21.8,8.9,-2.0,89,63,46,30.04,29.45,11,3,22,0.00
2014-1-26,24.7,19.6,11.1,17.3,7.4,-2.3,81,59,40,29.92,29.60,12,3,27,0.01
2014-1-27,37.3,24.6,14.1,25.1,10.2,-4.6,75,55,33,30.17,29.60,16,5,30,0.03
2014-1-28,14.0,9.8,5.6,3.4,-6.7,-11.5,77,47,37,30.44,30.18,8,4,18,0.00
2014-1-29,19.4,12.1,5.2,4.1,-4.4,-10.6,79,49,31,30.34,30.20,10,5,21,0.00
2014-1-30,27.2,16.8,7.0,4.7,-0.5,-5.3,60,47,32,30.49,30.18,5,2,11,0.01
2014-1-31,35.8,27.5,17.2,21.1,15.0,4.6,72,59,47,30.23,30.10,4,0,8,0.04
2014-2-1,44.8,36.7,30.0,31.9,23.4,18.0,89,60,36,30.29,29.99,6,2,19,0.02
2014-2-2,48.2,38.8,32.4,36.0,32.5,28.4,94,79,52,30.09,29.92,4,1,8,0.00
2014-2-3,39.2,31.6,23.5,35.8,30.1,19.7,97,94,85,30.34,30.07,5,2,10,0.21
2014-2-4,28.5,23.2,16.9,25.3,17.9,12.9,91,80,66,30.48,30.22,4,1,8,0.05
2014-2-5,33.4,31.0,26.6,32.4,28.8,18.6,96,92,70,30.21,29.71,13,2,30,0.00
2014-2-6,29.7,24.1,19.5,18.6,15.6,12.4,76,70,58,30.33,30.09,12,4,27,0.06
2014-2-7,32.1,25.3,19.5,18.6,15.2,10.7,80,66,54,30.35,30.26,7,2,13,0.07
2014-2-8,27.3,22.2,17.5,12.4,9.1,3.3,68,57,41,30.35,30.19,5,2,10,0.00
2014-2-9,24.7,21.8,19.1,20.5,14.1,8.1,91,73,54,30.20,30.01,3,1,8,0.00
2014-2-10,26.7,20.4,14.3,18.9,9.5,4.8,91,63,47,30.32,30.06,9,4,20,0.02
2014-2-11,25.1,17.9,12.4,7.4,4.7,0.9,67,56,44,30.49,30.32,8,3,18,0.01
2014-2-12,21.6,15.7,7.7,15.3,4.8,-0.9,88,62,53,30.56,30.22,5,2,11,0.00
2014-2-13,32.7,27.9,18.3,32.3,26.8,15.3,99,95,88,30.22,29.24,14,6,26,0.01
2014-2-14,40.6,33.5,25.6,31.0,25.5,20.3,98,74,51,29.75,29.28,14,7,30,0.43
2014-2-15,33.7,30.2,23.3,30.6,25.2,9.9,94,83,55,29.90,29.65,13,6,27,0.00
2014-2-16,28.7,22.1,17.5,16.4,10.6,5.6,80,62,44,30.19,29.90,12,6,24,0.02
2014-2-17,29.1,21.3,13.6,15.5,5.7,1.8,78,52,35,30.45,30.19,8,3,19,0.06
2014-2-18,40.3,31.0,22.1,28.6,24.8,8.4,93,79,52,30.25,29.99,7,2,13,0.39
2014-2-19,44.5,36.3,28.2,36.1,30.1,24.3,94,78,59,30.11,29.70,12,3,28,0.18
2014-2-20,48.8,39.9,32.1,30.5,26.2,19.4,77,59,33,30.26,29.94,6,2,12,0.00
2014-2-21,47.9,39.6,36.3,47.6,36.4,25.9,100,89,50,29.94,29.64,14,3,28,0.07
2014-2-22,54.8,45.0,37.2,29.8,21.5,15.2,64,41,23,30.07,29.94,11,4,21,0.00
2014-2-23,51.4,41.8,34.1,34.6,28.1,24.2,86,59,40,30.01,29.89,12,3,22,0.06
2014-2-24,36.9,31.9,24.2,31.5,14.5,7.7,82,49,34,30.12,29.88,14,6,27,0.01
2014-2-25,33.4,26.4,22.2,17.2,12.4,7.5,66,55,45,30.12,29.98,11,4,26,0.00
2014-2-26,27.5,23.1,16.5,22.0,8.8,-2.1,90,56,31,29.99,29.87,13,4,26,0.01
2014-2-27,29.8,19.8,9.9,15.9,2.6,-12.9,73,48,32,30.17,29.68,15,7,35,0.01
2014-2-28,21.4,12.8,5.4,-2.5,-9.7,-13.4,48,36,22,30.45,30.18,7,2,19,0.00
2014-3-1,36.2,24.9,11.4,17.3,7.2,-4.9,58,47,36,30.40,30.15,4,1,10,0.00
2014-3-2,37.3,33.1,29.8,32.4,25.0,17.0,94,73,54,30.16,30.00,5,1,13,0.09
2014-3-3,29.8,18.1,13.6,24.3,5.6,-1.5,88,59,47,30.36,30.01,8,4,24,0.00
2014-3-4,28.7,18.7,9.3,6.9,1.6,-2.8,63,47,28,30.44,30.25,4,1,10,0.04
2014-3-5,38.8,26.9,17.2,13.6,8.8,3.8,70,47,27,30.45,30.20,7,2,19,0.01
2014-3-6,28.8,22.7,16.2,16.9,6.8,1.2,70,51,33,30.62,30.42,5,3,13,0.00
2014-3-7,37.9,30.2,22.9,25.6,21.3,15.6,76,69,59,30.42,29.94,5,3,12,0.00
2014-3-8,53.9,40.2,27.0,33.5,28.2,22.4,84,64,43,29.94,29.85,9,5,17,0.00
2014-3-9,42.6,37.3,33.4,33.1,21.8,13.7,76,55,35,30.09,29.90,11,6,21,0.00
2014-3-10,56.2,43.7,34.3,32.6,26.0,16.7,60,50,39,29.97,29.61,6,2,17,0.00
2014-3-11,64.7,52.6,43.9,41.2,36.0,28.8,64,54,41,29.69,29.58,6,2,12,0.00
2014-3-12,57.2,46.4,24.7,50.1,37.7,12.4,96,72,53,29.64,28.99,21,4,47,0.32
2014-3-13,29.1,23.3,17.3,12.6,2.4,-2.7,63,41,26,30.15,29.43,36,12,36,0.00
2014-3-14,47.7,35.1,21.9,27.7,14.5,4.1,54,43,28,30.20,29.84,8,3,19,0.00
2014-3-15,58.0,49.0,40.5,33.6,26.4,21.6,55,42,27,30.05,29.75,13,6,29,0.00
2014-3-16,40.5,33.8,28.1,26.4,13.4,2.1,64,44,24,30.20,30.05,8,3,18,0.00
2014-3-17,31.8,26.8,20.0,18.4,12.6,-3.8,88,57,27,30.12,30.02,8,2,19,0.04
2014-3-18,43.2,35.4,29.5,21.5,15.6,6.4,58,44,30,30.25,30.09,7,3,17,0.00
2014-3-19,41.9,37.5,32.7,41.2,30.9,6.4,99,79,29,30.24,29.83,7,2,14,0.32
2014-3-20,50.5,43.6,37.2,41.9,31.0,22.4,99,65,36,29.97,29.77,17,6,35,0.00
2014-3-21,52.8,42.4,32.8,27.0,23.4,15.5,72,49,23,30.05,29.96,10,4,21,0.00
2014-3-22,65.5,49.2,36.9,39.7,30.4,24.4,80,52,25,30.00,29.79,14,5,33,0.00
2014-3-23,43.1,37.8,27.0,26.7,18.5,6.5,59,47,25,30.17,30.00,10,5,22,0.00
2014-3-24,34.3,26.7,18.8,12.6,4.1,0.5,55,39,25,30.31,30.15,9,4,19,0.00
2014-3-25,31.2,27.9,22.1,28.8,18.8,1.9,93,71,34,30.15,29.89,4,2,8,0.05
2014-3-26,34.1,28.8,23.9,26.5,12.0,-1.4,92,56,23,30.29,29.86,16,7,31,0.03
2014-3-27,42.5,32.2,21.0,24.4,12.1,3.8,62,44,30,30.42,30.19,7,3,16,0.00
2014-3-28,62.9,48.6,36.0,51.4,40.8,24.0,93,75,62,30.19,29.93,7,2,20,0.07
2014-3-29,56.5,47.6,44.5,49.1,44.2,39.4,99,88,72,30.09,29.59,9,4,24,0.53
2014-3-30,46.5,39.1,33.2,46.2,37.7,31.7,99,95,89,29.80,29.51,10,4,26,0.06
2014-3-31,60.7,46.4,33.8,35.9,30.9,26.3,94,59,30,30.11,29.81,13,8,31,0.00
2014-4-1,60.5,47.9,34.7,36.4,31.3,26.5,73,54,36,30.16,29.95,8,2,18,0.00
2014-4-2,59.6,48.8,40.9,47.3,41.5,35.9,95,77,57,30.14,29.99,5,0,11,0.00
2014-4-3,59.8,52.6,46.5,45.4,37.4,24.0,92,60,26,30.12,29.95,5,1,11,0.05
2014-4-4,48.8,45.1,42.6,44.9,40.6,37.1,97,85,73,29.98,29.74,0,0,0,0.01
2014-4-5,51.0,44.1,37.2,42.3,32.2,24.7,99,66,43,30.14,29.74,15,2,30,0.00
2014-4-6,55.9,44.4,33.1,25.4,22.2,17.7,68,44,24,30.24,30.12,6,2,12,0.00
2014-4-7,48.9,42.3,38.0,48.5,35.3,18.0,99,79,36,30.18,29.60,7,1,19,0.00
2014-4-8,59.3,53.6,46.5,52.9,43.9,34.8,100,73,44,29.67,29.45,16,5,30,0.00
2014-4-9,62.4,51.9,40.9,35.6,29.3,21.1,72,45,22,30.02,29.66,10,5,22,0.00
2014-4-10,67.1,54.9,39.9,36.8,30.1,22.5,60,39,26,30.18,29.97,21,5,21,0.00
2014-4-11,75.6,60.2,53.2,53.7,42.9,35.1,96,57,27,30.03,29.92,11,2,25,0.03
2014-4-12,71.8,59.5,46.8,52.1,41.3,27.3,97,59,23,30.24,30.01,6,2,12,0.00
2014-4-13,80.7,64.9,51.9,55.8,50.9,37.2,88,63,39,30.12,29.93,9,3,18,0.00
2014-4-14,75.3,67.1,60.9,56.6,54.5,52.1,78,65,47,29.95,29.76,8,4,20,0.00
2014-4-15,65.0,53.2,34.7,62.7,49.8,25.6,96,89,69,30.00,29.48,14,4,28,0.13
2014-4-16,44.2,36.0,27.2,25.5,16.6,10.5,69,46,33,30.55,30.00,13,6,31,0.00
2014-4-17,52.2,42.5,31.6,32.1,25.5,17.0,69,51,39,30.67,30.55,8,4,17,0.00
2014-4-18,53.2,42.7,33.5,34.9,30.5,27.3,79,63,45,30.60,30.26,4,1,11,0.00
2014-4-19,66.1,53.1,40.5,39.5,29.5,20.4,74,45,21,30.31,30.24,7,2,18,0.00
2014-4-20,60.5,52.3,44.6,35.6,29.9,24.9,55,42,34,30.44,30.31,7,3,19,0.00
2014-4-21,68.8,54.0,38.8,33.5,24.4,14.9,59,35,15,30.31,29.86,4,1,8,0.00
2014-4-22,67.8,56.5,49.6,57.1,46.5,33.0,91,71,43,29.85,29.54,16,2,41,0.02
2014-4-23,56.5,48.5,42.1,37.6,33.4,28.9,65,56,47,29.94,29.62,15,10,30,0.00
2014-4-24,62.3,50.4,39.3,29.2,19.0,13.6,60,31,17,30.09,29.94,10,5,24,0.00
2014-4-25,63.9,50.6,42.2,45.4,27.4,12.3,91,46,22,30.02,29.73,8,3,20,0.01
2014-4-26,73.2,57.6,45.1,46.8,38.9,25.5,94,56,22,29.90,29.68,15,4,38,0.00
2014-4-27,61.3,52.3,41.3,36.1,31.9,27.5,69,47,29,30.13,29.90,7,4,18,0.00
2014-4-28,63.1,51.5,42.1,46.4,36.5,30.9,93,59,36,30.15,29.98,5,1,12,0.01
2014-4-29,49.2,45.6,42.1,47.8,42.5,39.6,96,89,74,30.29,30.05,9,2,32,0.12
2014-4-30,57.6,47.1,41.6,57.6,46.7,40.7,100,99,96,30.29,29.82,0,0,0,0.92
2014-5-1,74.7,61.4,52.5,62.7,54.1,41.1,100,80,43,29.84,29.69,8,2,18,0.10
2014-5-2,63.2,57.3,51.9,41.4,38.9,36.1,65,51,37,29.87,29.77,10,4,20,0.00
2014-5-3,66.4,56.4,49.2,53.7,43.1,36.8,88,63,39,29.88,29.72,12,1,25,0.06
2014-5-4,61.6,54.5,50.2,46.8,38.9,29.6,80,57,36,29.91,29.76,12,5,30,0.00
2014-5-5,64.8,54.8,42.6,38.0,33.1,27.7,70,46,27,30.00,29.88,9,4,21,0.00
2014-5-6,69.8,59.6,48.5,40.4,34.5,24.8,71,42,24,30.06,29.88,7,2,16,0.00
2014-5-7,60.4,56.2,48.8,46.5,37.0,29.3,72,49,36,30.23,30.06,4,2,11,0.00
2014-5-8,76.3,63.2,53.9,59.4,53.0,45.5,87,70,50,30.16,29.99,6,1,13,0.00
2014-5-9,72.5,62.9,56.7,62.6,57.8,54.3,92,84,69,30.12,29.93,5,1,14,0.00
2014-5-10,79.6,67.4,61.5,63.8,60.9,56.3,97,82,50,29.93,29.87,7,1,19,0.05
2014-5-11,77.6,67.3,57.2,60.2,50.2,42.3,96,59,31,30.09,29.91,5,2,17,0.01
2014-5-12,81.2,70.6,60.2,64.1,56.5,47.8,84,62,46,30.10,30.01,4,0,10,0.00
2014-5-13,81.4,69.3,58.4,69.8,62.3,50.4,97,79,59,30.19,30.00,9,2,16,0.26
2014-5-14,65.2,58.7,51.7,62.8,55.5,49.1,96,89,75,30.26,30.14,8,2,11,0.00
2014-5-15,76.1,68.3,62.3,69.7,64.8,62.0,100,89,69,30.15,29.92,5,2,19,0.01
2014-5-16,67.8,61.4,53.5,65.2,56.0,42.4,98,83,63,29.92,29.71,8,4,21,1.30
2014-5-17,63.5,55.4,46.8,44.0,40.0,34.4,77,57,35,30.15,29.92,6,2,14,0.00
2014-5-18,62.4,54.9,45.2,43.4,38.0,31.1,80,55,32,30.23,30.15,6,3,18,0.00
2014-5-19,70.1,60.6,45.2,43.0,37.4,32.8,77,45,27,30.27,30.13,7,3,20,0.00
2014-5-20,72.7,63.1,51.9,52.2,44.0,38.4,79,51,31,30.18,30.01,4,1,14,0.02
2014-5-21,61.5,58.8,55.7,59.9,56.2,49.1,98,91,72,30.02,29.88,2,0,6,0.34
2014-5-22,79.8,66.2,59.2,67.1,60.7,48.0,100,84,53,29.88,29.72,6,1,16,0.14
2014-5-23,72.8,63.5,53.2,53.0,47.3,40.2,79,57,35,29.99,29.85,10,4,22,0.00
2014-5-24,73.7,63.3,53.9,53.0,49.6,46.1,79,62,41,30.11,29.97,6,3,18,0.00
2014-5-25,77.9,67.1,53.9,56.6,48.3,38.0,95,57,24,30.14,30.06,6,2,17,0.00
2014-5-26,84.0,72.2,58.9,56.3,52.0,47.4,73,50,31,30.09,29.93,10,2,12,0.00
2014-5-27,84.1,72.1,65.8,68.4,61.1,53.1,96,70,51,29.94,29.80,9,2,22,0.13
2014-5-28,81.1,67.6,56.0,67.0,62.8,52.5,96,86,56,30.10,29.79,8,2,21,0.00
2014-5-29,56.0,53.2,52.3,52.8,50.9,48.4,97,92,86,30.21,30.10,3,1,12,0.38
2014-5-30,74.2,62.4,52.5,56.0,53.1,47.9,100,75,45,30.15,30.01,4,1,12,0.01
2014-5-31,73.7,66.8,56.2,52.1,44.4,35.3,76,47,26,30.26,30.09,9,3,22,0.00
2014-6-1,76.5,64.3,52.8,55.9,51.4,48.0,94,66,40,30.34,30.22,2,0,8,0.00
2014-6-2,80.7,68.5,55.7,59.0,54.4,49.0,82,62,42,30.25,30.01,2,0,11,0.00
2014-6-3,85.9,73.2,62.6,67.1,62.6,57.8,86,71,51,30.03,29.79,7,1,19,0.01
2014-6-4,80.9,71.2,62.3,63.4,59.3,52.1,96,69,39,29.86,29.70,6,2,16,0.11
2014-6-5,74.9,65.5,57.6,59.6,55.2,48.8,98,73,41,29.84,29.63,7,4,20,0.17
2014-6-6,74.0,65.8,55.9,53.0,50.7,48.5,81,59,42,29.96,29.82,6,2,16,0.00
2014-6-7,80.1,69.9,57.0,56.6,53.4,49.4,88,59,36,30.03,29.92,5,1,11,0.00
2014-6-8,82.2,71.0,60.9,63.7,58.3,49.7,93,66,47,29.95,29.82,3,1,11,0.09
2014-6-9,80.5,70.6,65.3,70.8,66.4,61.4,99,87,65,29.89,29.81,5,0,12,0.95
2014-6-10,78.6,72.2,67.9,71.2,68.7,66.2,100,89,66,29.93,29.85,4,0,8,0.15
2014-6-11,72.5,67.6,63.5,70.4,66.0,62.5,98,95,89,30.03,29.91,4,1,14,0.61
2014-6-12,70.6,66.4,62.6,69.3,65.7,61.8,100,98,90,30.02,29.84,0,0,0,0.21
2014-6-13,77.9,70.0,65.8,73.9,68.4,64.9,100,95,74,29.84,29.71,4,0,16,0.45
2014-6-14,68.3,64.1,57.6,64.9,53.9,48.0,97,71,53,30.09,29.82,11,3,19,0.05
2014-6-15,77.4,66.7,53.9,58.1,52.3,47.8,85,62,41,30.17,30.06,4,2,12,0.03
2014-6-16,87.0,74.3,60.2,67.1,60.3,52.6,88,64,40,30.13,30.00,4,0,11,0.02
2014-6-17,88.6,79.8,69.9,71.4,67.7,62.2,88,68,49,30.08,29.90,5,1,12,0.01
2014-6-18,89.3,82.1,73.7,69.5,65.9,60.1,71,59,40,29.96,29.87,9,3,22,0.00
2014-6-19,77.9,71.2,66.8,69.1,66.1,63.0,96,84,64,30.03,29.90,4,1,12,0.02
2014-6-20,77.4,68.9,56.2,64.1,50.1,44.6,91,54,34,30.05,29.91,5,2,12,0.00
2014-6-21,71.3,66.2,59.5,58.4,54.7,48.3,88,67,47,29.95,29.87,4,0,8,0.12
2014-6-22,79.6,69.4,58.7,61.6,58.7,55.6,92,70,49,29.99,29.89,2,0,7,0.00
2014-6-23,81.1,71.3,61.5,65.4,60.4,57.3,96,70,50,30.10,29.99,3,1,10,0.00
2014-6-24,84.3,74.1,66.8,66.9,62.4,58.8,82,68,53,30.11,29.97,3,1,12,0.00
2014-6-25,85.3,76.3,69.3,72.0,69.7,65.1,96,81,60,29.98,29.78,7,1,14,0.72
2014-6-26,82.2,75.1,68.6,69.3,65.8,61.7,98,75,51,29.96,29.82,6,2,16,0.00
2014-6-27,81.1,73.5,67.1,67.7,65.1,62.1,89,76,58,30.18,29.96,3,1,10,0.00
2014-6-28,84.1,72.8,62.1,65.7,61.1,57.8,90,68,44,30.27,30.18,1,0,7,0.00
2014-6-29,83.0,73.9,65.0,63.0,59.8,55.6,84,63,45,30.23,30.09,2,0,10,0.00
2014-6-30,85.1,75.6,68.1,68.7,63.7,54.1,78,67,53,30.10,29.91,2,0,8,0.00
2014-7-1,89.7,79.2,70.6,74.1,70.1,66.2,88,74,56,29.94,29.79,6,1,10,0.00
2014-7-2,91.6,81.5,73.9,76.6,72.9,69.6,94,76,58,29.88,29.79,7,0,8,0.00
2014-7-3,89.3,77.5,70.6,75.4,71.9,68.7,96,84,60,29.97,29.86,2,0,10,0.10
2014-7-4,73.0,68.8,63.4,69.6,58.2,46.9,97,72,42,30.13,29.96,11,4,27,0.42
2014-7-5,78.6,69.6,58.6,53.0,49.7,44.9,73,51,31,30.23,30.12,6,3,16,0.00
2014-7-6,84.7,73.3,61.5,65.1,56.7,50.6,78,58,35,30.12,29.91,5,1,17,0.00
2014-7-7,89.0,79.6,71.6,67.7,65.6,61.7,82,63,44,29.91,29.73,5,1,19,0.00
2014-7-8,88.0,78.4,67.4,71.9,67.2,64.9,95,70,50,29.81,29.61,10,1,30,0.14
2014-7-9,85.7,74.7,65.8,69.8,66.4,63.7,97,77,51,29.93,29.77,5,1,14,0.00
2014-7-10,72.7,71.1,69.3,66.4,66.1,65.8,89,84,80,29.96,29.93,1,0,5,0.00
2014-7-11,81.8,72.9,63.9,67.7,64.6,62.3,99,78,53,30.19,30.11,8,2,8,0.00
2014-7-12,84.1,74.6,66.4,71.0,66.6,62.0,94,77,57,30.20,30.08,12,2,12,0.00
2014-7-13,83.6,77.4,69.1,75.0,70.9,67.0,93,81,69,30.08,29.85,8,0,22,0.16
2014-7-14,83.4,73.5,68.6,73.9,69.9,67.0,98,89,68,29.91,29.79,4,0,11,0.66
2014-7-15,80.1,73.4,68.1,77.1,70.5,66.3,100,92,71,29.82,29.70,7,0,16,0.74
2014-7-16,77.4,70.8,64.8,66.9,59.8,52.3,98,71,44,29.90,29.74,5,2,17,0.02
2014-7-17,76.3,69.1,59.9,58.0,54.8,51.2,84,62,42,30.12,29.90,5,2,14,0.00
2014-7-18,78.8,69.8,59.3,60.5,55.3,49.9,82,61,37,30.23,30.12,2,0,8,0.00
2014-7-19,78.6,71.3,65.3,63.6,58.9,53.1,89,66,47,30.20,30.12,2,0,12,0.04
2014-7-20,80.1,71.0,63.9,65.0,61.9,58.4,90,74,52,30.13,30.06,2,0,7,0.00
2014-7-21,78.1,72.3,66.4,66.8,65.1,62.9,96,79,62,30.18,30.10,0,0,5,0.00
2014-7-22,84.0,75.9,69.3,72.0,68.2,65.4,91,78,61,30.17,30.03,3,0,12,0.00
2014-7-23,88.6,76.1,68.6,75.3,69.3,65.2,98,81,59,30.03,29.76,14,1,37,1.23
2014-7-24,77.6,70.8,65.5,69.6,60.4,53.5,99,72,48,29.94,29.83,6,2,14,0.00
2014-7-25,77.0,67.9,56.0,57.4,53.1,50.0,82,61,42,30.06,29.94,5,1,10,0.00
2014-7-26,81.6,72.0,64.7,65.7,59.7,55.0,86,67,43,29.99,29.86,3,0,10,0.01
2014-7-27,85.9,75.6,65.6,71.8,67.6,64.6,98,78,53,29.85,29.62,8,1,17,3.11
2014-7-28,78.1,68.8,62.9,68.8,63.3,58.1,100,85,52,29.78,29.51,9,2,24,0.12
2014-7-29,69.9,64.3,57.3,61.4,56.0,52.6,95,76,57,29.99,29.78,4,2,12,0.00
2014-7-30,75.6,65.8,55.9,57.8,54.8,52.3,91,69,45,30.05,29.99,3,1,10,0.00
2014-7-31,80.7,71.2,60.7,65.0,60.2,56.2,91,70,44,30.09,30.02,3,1,13,0.00
2014-8-1,82.0,72.0,66.9,70.3,66.7,64.0,95,84,62,30.16,30.09,2,0,8,0.00
2014-8-2,78.5,70.9,65.2,66.1,64.3,61.7,93,81,59,30.15,30.05,3,0,8,0.00
2014-8-3,72.5,69.2,66.1,68.1,65.5,63.6,96,88,77,30.09,29.99,1,0,8,0.06
2014-8-4,78.5,70.3,62.7,66.9,64.2,62.1,99,82,61,30.09,30.03,4,1,11,0.00
2014-8-5,84.0,74.2,64.7,66.9,63.4,59.5,95,71,45,30.05,29.91,6,1,20,0.00
2014-8-6,77.2,69.5,63.2,64.7,61.8,60.4,92,78,57,29.94,29.87,6,2,11,0.00
2014-8-7,79.8,70.7,62.1,62.8,58.0,54.7,88,66,44,30.03,29.92,6,2,13,0.00
2014-8-8,77.6,69.1,59.8,59.0,55.2,50.4,88,63,42,30.13,30.03,4,1,12,0.00
2014-8-9,80.9,71.1,60.7,60.4,57.2,54.0,88,63,43,30.12,30.05,3,0,8,0.00
2014-8-10,85.1,72.8,61.3,64.3,59.8,55.1,89,66,39,30.12,30.06,2,0,7,0.00
2014-8-11,81.2,71.7,63.4,66.1,61.1,53.3,92,71,39,30.10,30.00,4,1,13,0.00
2014-8-12,70.6,68.9,66.9,70.3,68.1,63.8,99,97,85,30.01,29.76,3,0,10,0.75
2014-8-13,78.1,71.2,65.6,69.9,63.6,53.1,100,79,55,29.85,29.72,8,3,20,0.08
2014-8-14,74.9,67.3,57.2,60.1,52.9,48.0,79,61,43,29.91,29.81,8,2,13,0.00
2014-8-15,72.7,64.5,55.0,53.4,49.7,47.3,77,60,42,29.99,29.91,6,2,17,0.00
2014-8-16,75.6,65.9,54.7,57.3,53.1,47.4,89,65,41,30.01,29.91,4,1,12,0.00
2014-8-17,78.5,69.1,62.3,67.6,59.0,53.2,92,71,53,29.91,29.84,6,1,17,0.02
2014-8-18,79.0,69.8,60.2,64.9,59.9,55.2,89,72,52,29.93,29.80,2,0,8,0.00
2014-8-19,79.8,72.2,63.4,66.5,62.5,55.3,87,72,58,29.89,29.82,3,0,7,0.00
2014-8-20,81.2,72.7,65.3,68.5,64.1,61.0,88,75,57,30.00,29.89,2,0,7,0.00
2014-8-21,84.0,72.8,65.5,72.2,67.4,62.6,95,84,64,30.02,29.94,1,0,6,0.02
2014-8-22,76.7,71.6,67.4,69.4,66.9,65.1,96,86,73,30.00,29.93,3,0,16,0.00
2014-8-23,70.8,67.1,63.2,65.4,62.0,59.8,96,84,74,30.10,29.98,3,1,11,0.01
2014-8-24,77.2,69.0,61.3,62.3,59.1,54.6,96,73,49,30.15,30.08,3,0,10,0.00
2014-8-25,81.4,70.5,60.5,62.5,59.4,54.5,96,71,42,30.17,30.11,2,0,7,0.00
2014-8-26,85.1,72.8,61.6,64.2,60.8,58.4,93,68,46,30.17,30.06,2,0,10,0.00
2014-8-27,86.1,75.4,62.7,69.8,65.5,60.3,94,73,50,30.06,29.86,4,1,10,0.00
2014-8-28,76.1,70.5,62.9,69.4,57.9,50.3,84,66,45,30.09,29.86,7,2,20,0.00
2014-8-29,74.4,66.1,55.3,55.3,51.4,48.1,81,60,42,30.20,30.09,4,0,8,0.00
2014-8-30,76.8,67.3,59.9,66.6,61.0,55.1,92,81,64,30.22,30.10,10,1,10,0.00
2014-8-31,86.7,77.1,71.3,73.2,70.7,66.6,97,82,56,30.10,29.94,6,1,16,0.40
2014-9-1,84.1,76.4,71.3,75.2,72.3,70.5,99,88,64,30.00,29.89,3,0,11,0.11
2014-9-2,87.0,76.7,69.8,73.0,69.9,67.2,97,81,55,29.93,29.81,6,1,26,0.05
2014-9-3,77.9,72.4,67.6,68.5,63.4,58.8,94,75,55,30.11,29.86,4,0,10,0.00
2014-9-4,85.3,73.9,63.5,68.1,63.9,59.9,92,73,49,30.17,30.07,1,0,8,0.00
2014-9-5,82.6,73.3,69.9,74.5,70.4,67.2,98,91,74,30.14,29.99,6,0,16,0.12
2014-9-6,88.4,74.6,68.3,75.3,71.6,62.6,99,91,60,29.99,29.84,13,1,32,0.82
2014-9-7,74.6,67.8,61.2,62.4,55.4,51.3,88,66,46,30.16,29.95,6,2,14,0.00
2014-9-8,72.0,65.6,59.0,61.6,55.7,51.6,81,70,59,30.26,30.16,4,2,14,0.00
2014-9-9,71.8,66.5,62.6,61.7,58.9,56.0,82,77,67,30.22,30.10,4,2,14,0.00
2014-9-10,79.0,69.2,63.1,63.4,61.2,57.8,91,77,54,30.10,29.95,3,0,10,0.00
2014-9-11,80.9,73.1,66.4,70.4,66.3,59.3,92,80,66,29.97,29.82,5,2,13,0.00
2014-9-12,69.6,63.5,57.0,59.3,53.3,50.8,82,70,56,30.16,29.96,6,2,14,0.00
2014-9-13,61.8,57.9,54.5,60.9,55.0,49.0,97,90,80,30.21,30.09,5,1,13,0.17
2014-9-14,63.5,55.7,49.4,50.4,47.1,45.6,89,74,57,30.31,30.19,4,2,11,0.00
2014-9-15,68.3,58.8,49.1,53.2,49.8,46.6,93,74,50,30.24,30.04,3,0,8,0.00
2014-9-16,70.8,62.4,55.3,56.2,52.5,49.1,92,72,51,30.04,29.96,7,2,17,0.00
2014-9-17,70.1,61.4,52.8,53.3,50.1,46.0,95,68,44,30.05,29.93,3,0,8,0.00
2014-9-18,72.5,62.3,53.8,55.8,49.7,43.5,91,66,38,30.09,29.93,5,1,13,0.00
2014-9-19,68.1,60.0,51.6,55.3,51.2,46.5,88,74,59,30.29,30.09,5,2,13,0.00
2014-9-20,75.8,65.2,55.6,61.3,57.7,53.3,96,78,55,30.29,30.02,3,1,12,0.00
2014-9-21,79.8,67.5,60.4,64.9,61.6,58.5,99,83,55,30.03,29.58,6,0,14,0.06
2014-9-22,66.4,60.3,53.1,61.8,47.9,41.3,93,65,47,30.19,29.67,9,4,28,0.00
2014-9-23,67.6,57.6,46.1,48.8,44.0,40.5,86,62,42,30.37,30.20,4,1,11,0.00
2014-9-24,69.4,60.2,50.7,55.5,51.2,46.5,87,73,58,30.50,30.37,4,2,16,0.00
2014-9-25,62.0,58.7,55.9,59.8,56.3,54.0,97,92,83,30.40,30.23,0,0,0,0.29
2014-9-26,73.2,63.1,53.1,56.4,53.7,50.7,98,74,47,30.26,30.16,4,1,12,0.00
2014-9-27,77.7,66.3,54.8,58.6,54.9,51.9,93,70,41,30.24,30.15,6,1,7,0.00
2014-9-28,79.0,67.4,56.6,59.8,56.1,53.6,94,70,42,30.18,30.02,3,1,10,0.00
2014-9-29,73.3,66.9,60.2,63.9,59.8,55.0,93,78,62,30.01,29.88,2,0,6,0.00
2014-9-30,75.3,66.6,59.9,64.1,60.5,58.0,98,82,57,29.94,29.84,2,0,7,0.01
2014-10-1,69.3,62.6,57.3,60.7,58.9,56.5,98,88,68,30.06,29.94,4,1,11,0.19
2014-10-2,67.9,61.8,57.0,58.9,56.9,55.0,95,85,67,30.14,30.06,2,0,7,0.00
2014-10-3,68.1,61.2,54.7,59.9,57.2,53.7,98,87,70,30.09,29.72,5,1,13,0.17
2014-10-4,63.1,57.7,43.2,62.4,49.8,32.6,99,77,42,29.79,29.57,9,2,25,0.14
2014-10-5,56.9,47.9,38.3,41.2,35.8,33.2,84,64,43,29.98,29.79,7,2,19,0.00
2014-10-6,68.9,56.0,42.5,54.1,44.3,38.7,92,67,44,30.02,29.92,4,2,12,0.00
2014-10-7,67.3,61.5,56.3,59.5,52.7,49.6,95,74,55,30.01,29.80,4,1,13,0.07
2014-10-8,70.3,61.8,54.5,59.0,50.2,41.0,97,69,39,29.97,29.79,8,3,25,0.06
2014-10-9,68.6,58.8,48.6,42.6,39.6,35.4,69,51,33,30.08,29.96,7,3,19,0.00
2014-10-10,57.5,53.0,49.4,49.5,45.6,41.4,92,77,58,30.12,30.06,4,0,6,0.05
2014-10-11,54.1,50.7,49.2,50.9,48.9,47.2,98,94,84,30.18,30.02,4,1,10,0.32
2014-10-12,60.4,52.1,43.5,48.0,42.0,38.3,95,70,48,30.30,30.18,3,1,8,0.00
2014-10-13,62.6,57.8,54.1,62.3,54.4,45.8,99,88,72,30.30,30.19,3,0,7,0.04
2014-10-14,73.9,68.4,62.6,67.1,65.1,62.3,100,90,74,30.18,29.98,5,2,16,0.01
2014-10-15,72.1,67.3,63.2,69.1,65.5,62.6,100,94,87,29.97,29.71,0,0,0,1.95
2014-10-16,64.7,60.1,56.2,63.5,58.4,55.6,100,95,77,29.72,29.66,4,0,13,0.31
2014-10-17,68.9,59.8,52.3,56.4,53.6,51.1,99,82,55,29.76,29.64,5,1,16,0.01
2014-10-18,65.3,56.8,49.1,53.8,47.5,40.3,90,72,51,29.81,29.58,11,4,26,0.00
2014-10-19,53.3,48.3,44.8,42.6,33.8,27.8,77,58,39,30.08,29.80,10,5,25,0.00
2014-10-20,60.4,50.1,38.0,49.4,40.5,32.9,88,70,53,30.12,29.91,2,0,10,0.00
2014-10-21,62.7,55.4,49.5,52.2,49.7,48.0,98,82,62,29.91,29.80,4,1,11,0.06
2014-10-22,53.8,52.4,50.4,50.5,48.2,43.8,93,86,77,29.94,29.86,6,1,17,0.15
2014-10-23,56.9,53.4,50.4,47.3,44.6,41.9,79,72,58,29.89,29.82,0,0,0,0.00
2014-10-24,64.8,58.0,52.2,45.4,41.4,33.8,71,55,33,29.92,29.84,8,2,20,0.00
2014-10-25,67.6,56.9,46.8,47.7,42.9,38.8,74,60,42,29.92,29.61,6,2,17,0.00
2014-10-26,63.5,58.0,51.4,49.8,37.0,30.1,70,46,35,29.89,29.60,12,4,30,0.00
2014-10-27,64.5,54.6,45.5,42.7,34.7,30.7,65,48,31,30.07,29.89,5,2,12,0.00
2014-10-28,73.5,60.7,51.0,57.3,49.7,42.7,79,68,52,30.02,29.87,2,0,8,0.00
2014-10-29,62.9,56.9,49.8,55.8,51.1,44.8,96,82,58,29.97,29.85,5,0,13,0.05
2014-10-30,54.2,48.0,41.3,49.0,40.7,35.8,98,77,55,30.05,29.96,5,2,12,0.00
2014-10-31,52.9,47.2,43.6,38.6,35.6,30.9,78,65,46,30.03,29.84,4,1,12,0.00
2014-11-1,49.5,45.8,42.3,41.8,37.6,29.4,86,73,60,29.90,29.79,11,5,25,0.02
2014-11-2,46.5,41.9,38.9,33.3,23.5,13.8,80,50,30,30.18,29.89,16,8,32,0.00
2014-11-3,59.0,47.4,37.0,32.4,21.4,13.9,54,38,17,30.26,30.16,9,4,20,0.02
2014-11-4,70.1,58.5,49.4,41.0,28.1,18.0,59,34,14,30.18,30.00,5,1,14,0.00
2014-11-5,59.8,56.0,51.7,45.4,38.2,33.4,68,52,42,30.17,30.00,5,1,11,0.00
2014-11-6,51.3,48.1,45.7,49.6,47.0,41.1,99,96,69,30.12,29.64,4,1,10,0.75
2014-11-7,49.5,44.0,35.9,45.2,31.8,22.6,99,64,38,30.02,29.66,15,6,31,0.00
2014-11-8,48.0,40.0,31.3,32.7,28.2,23.9,80,64,43,30.04,29.89,5,1,13,0.00
2014-11-9,52.5,45.6,38.2,35.9,30.8,27.8,78,57,39,30.01,29.88,8,2,17,0.00
2014-11-10,59.9,48.4,37.3,41.7,36.0,29.1,77,63,48,30.16,30.01,3,1,10,0.00
2014-11-11,62.7,52.7,41.3,56.8,48.8,37.1,94,87,77,30.10,29.87,3,1,11,0.00
2014-11-12,58.7,53.2,37.2,57.0,43.4,28.1,97,72,43,30.12,29.84,12,4,26,0.00
2014-11-13,41.2,36.0,32.5,33.3,28.6,25.9,96,75,56,30.15,30.04,5,2,13,0.02
2014-11-14,37.8,34.0,30.0,31.9,20.8,15.3,92,59,40,30.25,30.03,10,5,24,0.06
2014-11-15,38.0,32.2,26.9,23.6,20.6,18.3,75,63,47,30.39,30.25,7,3,18,0.01
2014-11-16,40.8,36.1,30.0,34.2,25.6,20.1,94,67,48,30.36,30.04,3,1,8,0.13
2014-11-17,44.5,39.4,35.8,44.2,37.4,24.2,99,93,63,30.04,29.52,12,2,25,0.53
2014-11-18,35.6,24.4,19.9,23.9,6.4,0.6,64,46,33,30.19,29.72,16,8,34,0.00
2014-11-19,31.0,24.4,17.8,13.1,7.7,4.6,58,49,41,30.32,29.99,8,3,18,0.03
2014-11-20,43.3,33.7,27.6,25.6,16.2,9.8,58,49,38,30.09,29.88,9,4,20,0.00
2014-11-21,33.1,27.2,22.4,10.6,9.2,6.9,58,47,34,30.53,30.09,11,4,26,0.00
2014-11-22,41.8,33.0,20.8,22.6,15.1,9.5,66,48,33,30.53,30.20,3,1,12,0.00
2014-11-23,55.1,44.8,36.2,48.0,26.5,18.5,95,50,31,30.21,29.82,6,2,12,0.01
2014-11-24,68.4,61.7,49.5,60.3,55.5,48.1,99,81,62,29.82,29.53,8,4,22,0.00
2014-11-25,60.2,50.6,43.1,53.0,33.9,28.4,79,53,40,30.16,29.75,11,4,21,0.00
2014-11-26,43.5,35.5,32.1,34.6,31.7,30.1,97,87,60,30.18,29.90,6,1,17,0.01
2014-11-27,35.9,32.6,30.4,31.3,29.6,27.5,97,89,77,30.12,29.95,6,1,12,0.00
2014-11-28,34.3,29.6,24.7,28.7,19.4,15.6,90,66,50,30.28,30.12,10,4,21,0.00
2014-11-29,35.9,30.1,24.5,29.4,20.9,13.5,78,68,56,30.34,30.14,5,2,11,0.00
2014-11-30,54.4,42.4,35.5,44.2,34.5,29.1,81,74,67,30.15,30.04,3,1,8,0.00
2014-12-1,62.9,50.0,38.0,52.6,42.4,27.2,93,76,61,30.46,30.08,9,2,22,0.03
2014-12-2,38.0,32.9,30.4,31.9,27.1,21.4,97,80,61,30.59,30.29,5,2,12,0.06
2014-12-3,43.5,37.4,32.7,43.2,35.2,25.6,99,92,61,30.28,30.00,10,2,22,0.33
2014-12-4,40.3,35.6,31.5,25.9,23.8,21.2,76,63,47,30.49,30.27,9,3,19,0.00
2014-12-5,37.5,35.4,32.5,36.5,29.5,21.7,96,79,64,30.53,30.32,3,1,8,0.24
2014-12-6,43.5,40.2,37.5,43.2,39.6,32.4,99,98,81,30.31,30.06,9,2,26,0.53
2014-12-7,42.3,35.8,30.3,32.1,20.3,14.5,79,55,34,30.59,30.26,10,5,24,0.00
2014-12-8,30.6,28.0,24.4,25.5,16.6,6.9,83,62,45,30.63,30.29,6,3,13,0.00
2014-12-9,42.2,36.4,29.1,39.9,34.0,25.0,97,91,82,30.29,29.83,10,5,21,0.63
2014-12-10,41.9,37.8,31.2,35.4,30.5,27.0,92,76,63,29.83,29.73,14,9,28,0.01
2014-12-11,33.1,31.1,29.7,29.7,26.5,22.8,96,83,67,29.93,29.75,12,7,27,0.03
2014-12-12,37.0,34.4,31.3,29.7,26.6,22.0,79,73,65,30.07,29.93,10,5,20,0.06
2014-12-13,37.2,33.5,29.0,29.5,27.2,23.6,81,77,73,30.09,29.96,9,5,20,0.01
2014-12-14,44.9,40.6,33.2,37.5,33.7,28.0,82,76,71,30.01,29.92,7,4,17,0.00
2014-12-15,42.3,39.9,34.0,36.1,34.6,31.9,92,81,77,30.11,30.01,7,2,14,0.00
2014-12-16,44.2,39.2,32.7,43.9,38.4,30.9,99,97,92,30.08,29.86,4,2,11,0.38
2014-12-17,48.5,41.3,35.6,44.6,34.7,22.7,100,79,59,30.01,29.86,13,6,24,0.02
2014-12-18,35.9,33.9,32.4,25.3,22.6,17.6,71,63,52,30.12,29.99,15,8,28,0.00
2014-12-19,38.9,33.7,28.7,25.8,23.7,21.0,75,67,53,30.21,30.05,10,5,21,0.00
2014-12-20,34.1,30.4,28.4,22.5,21.2,19.8,76,69,59,30.31,30.19,6,2,12,0.00
2014-12-21,33.7,29.4,26.0,24.2,22.4,21.3,84,75,64,30.35,30.28,5,2,11,0.00
2014-12-22,37.6,31.4,23.5,36.5,26.9,19.7,96,83,77,30.33,30.08,5,1,12,0.09
2014-12-23,47.9,43.6,37.5,47.6,43.2,36.5,100,99,96,30.09,30.01,4,2,13,0.13
2014-12-24,57.5,49.4,44.9,57.5,49.4,44.9,100,100,100,30.03,29.48,6,2,14,0.65
2014-12-25,57.5,46.0,36.9,57.5,37.3,29.0,100,73,51,30.19,29.48,13,6,27,0.05
2014-12-26,47.4,39.5,32.5,32.5,29.9,27.3,83,69,55,30.32,30.17,7,2,13,0.00
2014-12-27,55.9,43.8,32.8,36.0,32.4,28.6,88,66,42,30.29,30.05,4,1,7,0.00
2014-12-28,49.9,44.7,40.6,43.3,38.0,31.9,93,78,64,30.10,29.90,7,2,16,0.03
2014-12-29,42.8,37.3,31.3,32.2,25.1,19.0,72,61,48,30.26,30.09,5,2,13,0.00
2014-12-30,34.9,30.0,26.7,22.5,17.1,12.7,76,59,41,30.43,30.26,6,2,13,0.00
2014-12-31,31.0,26.3,22.2,15.2,10.1,6.8,68,51,36,30.42,30.19,9,4,20,0.00
2015-1-1,38.9,31.2,22.5,18.8,12.4,6.5,55,46,34,30.19,30.00,11,4,21,0.00
2015-1-2,40.9,34.9,30.4,21.0,18.8,15.3,62,52,43,30.42,30.04,8,3,17,0.00